Wind_Speed
36 33 33 34 32 29 26 25 24 23 24 25 24 23 22 21 21 21 21 22 21 19 19 20 22 23 23 24 24 24 24 23 23 23 22 23 23 23 23 23 24 24 25 24 24 24 25 25 24 26 28 28 25 24 24 24 25 26 27 28 28 29 31 31 30 28 28 28 28 27 28 30 32 33 34 34 34 33 32 32 33 35 37 40 41
35 34 34 34 35 33 32 30 27 23 22 23 23 23 23 22 22 22 22 22 23 23 23 23 24 25 25 26 27 26 26 26 26 26 25 26 26 25 25 25 26 27 27 26 26 25 24 23 23 26 29 29 27 26 26 26 26 27 27 28 29 32 34 34 33 33 32 32 32 32 31 30 29 30 31 31 31 32 32 33 35 37 40 42 43
35 35 35 36 37 38 38 36 31 26 23 21 20 21 21 21 22 22 22 23 24 25 26 26 26 27 27 27 28 28 27 27 27 28 28 28 27 26 26 27 29 30 29 29 29 28 26 24 25 27 31 31 29 27 27 26 27 27 28 30 33 36 37 37 37 37 37 37 37 37 36 35 33 32 32 33 33 34 35 36 38 40 42 44 44
36 35 36 36 36 37 38 38 35 31 26 22 19 18 19 19 19 20 24 27 27 25 25 28 29 28 28 28 28 28 27 26 27 28 28 27 26 26 27 29 30 29 30 32 32 31 30 28 27 29 32 33 31 30 29 28 28 29 32 35 38 39 39 38 38 39 40 41 42 41 40 39 39 38 38 37 38 38 39 40 41 43 45 45 45
36 35 35 35 36 36 36 36 35 34 31 29 25 21 17 16 16 22 30 33 31 28 29 31 31 29 29 30 29 28 27 26 26 26 26 26 26 27 26 26 26 26 29 33 33 32 31 30 30 31 32 33 33 32 32 32 34 36 39 42 43 42 41 40 40 41 42 44 45 45 44 42 42 42 42 42 42 43 43 44 45 46 47 46 45
36 37 35 34 35 35 35 35 34 34 33 32 31 27 22 19 19 26 34 36 34 34 34 34 34 32 30 30 30 28 27 27 27 27 28 28 29 28 25 24 26 28 30 32 32 32 32 32 32 33 33 33 34 34 35 36 38 41 43 45 46 46 45 45 45 46 47 47 48 48 47 45 44 44 44 45 45 46 46 47 47 47 47 46 45
35 39 37 35 35 34 34 34 33 34 33 33 34 31 29 28 27 28 31 33 35 36 36 36 37 35 30 29 29 27 26 26 27 28 29 28 29 29 29 30 32 32 32 32 32 33 34 34 35 35 35 35 35 35 37 38 40 42 45 46 48 49 50 51 52 52 52 52 51 49 47 47 46 45 45 45 46 47 47 48 48 47 46 45 45
31 37 37 36 36 34 34 33 32 33 34 34 34 34 33 34 34 32 30 32 35 36 35 35 36 34 31 31 31 28 26 26 25 27 30 30 31 31 33 35 36 36 35 34 35 36 36 36 37 37 36 35 36 38 39 41 42 45 48 50 51 53 54 55 56 56 56 55 54 50 47 46 46 46 46 46 47 47 47 47 47 46 46 45 46
28 32 32 31 33 34 33 32 32 32 33 33 34 35 35 37 38 34 31 31 34 35 35 35 34 34 34 33 31 28 28 29 30 32 35 36 35 36 37 38 38 37 36 36 36 37 37 37 37 37 37 36 38 40 42 44 46 49 52 54 55 55 56 57 58 59 59 57 54 51 48 46 46 47 47 48 48 48 48 47 46 45 45 45 46
27 30 29 28 29 32 32 31 32 33 34 34 35 36 37 38 38 34 31 32 34 35 37 37 36 35 34 32 30 28 28 32 35 37 39 39 38 38 38 37 38 37 36 36 37 38 37 38 39 39 38 38 39 41 44 46 49 51 54 56 57 57 58 59 59 59 59 57 55 54 52 49 48 48 48 49 48 48 47 46 44 44 45 45 45
27 26 27 26 27 30 31 32 34 36 39 39 39 39 39 39 37 34 33 35 36 35 35 37 37 35 34 33 34 33 33 37 40 41 41 41 41 39 37 36 36 35 35 36 39 40 41 42 43 43 43 43 45 48 50 51 53 54 57 58 59 59 59 59 59 58 58 57 56 54 52 49 48 48 48 48 47 46 46 44 43 44 45 45 44
27 25 26 24 25 28 31 34 38 41 42 41 40 40 38 37 37 36 35 38 40 39 38 39 39 38 37 38 40 41 42 44 46 45 44 43 41 39 37 37 37 37 38 41 43 44 46 47 48 49 50 51 52 54 55 56 58 60 61 60 59 59 58 57 57 57 57 57 55 52 50 48 48 48 48 47 46 45 45 44 44 45 46 45 44
31 30 29 27 26 31 38 43 46 45 41 40 39 38 37 37 39 39 39 40 42 44 44 44 43 43 43 45 46 47 46 46 45 46 45 43 41 40 40 40 40 41 43 44 46 48 50 51 52 54 55 55 55 56 58 61 63 63 62 60 59 58 56 55 57 58 58 56 53 51 49 48 47 47 47 46 45 45 45 44 45 46 46 45 44
33 32 32 30 31 38 45 49 50 46 40 38 39 39 39 39 40 41 43 44 44 45 46 46 47 47 49 50 50 48 46 46 47 47 47 45 44 43 42 42 42 44 46 48 50 52 53 54 56 57 57 57 57 60 63 65 65 64 62 59 57 56 56 57 59 60 59 56 53 51 49 48 47 46 46 46 46 46 46 45 46 47 47 45 45
34 34 34 33 33 40 46 45 41 38 37 36 38 39 40 41 41 41 42 44 46 47 48 49 51 53 53 53 51 49 49 50 51 51 50 50 49 48 47 47 47 48 50 52 54 55 56 57 58 58 58 58 60 63 66 66 64 62 59 56 56 56 58 59 60 59 58 56 53 51 49 47 46 46 45 46 47 47 47 47 47 48 47 46 46
36 38 40 39 39 41 42 37 31 30 33 36 38 40 41 41 40 39 39 41 44 47 49 50 51 52 53 52 51 51 51 51 51 51 51 51 52 52 53 52 52 52 53 54 56 57 58 58 57 57 58 61 64 66 65 63 60 58 56 56 56 57 58 58 57 56 55 54 52 50 49 48 46 46 46 47 48 49 49 49 50 49 48 47 47
38 39 41 42 43 41 35 30 27 29 31 34 37 40 40 39 38 37 37 39 42 44 47 48 49 50 51 52 52 51 50 49 49 50 51 52 53 54 55 55 54 54 55 56 57 57 57 57 58 60 63 66 67 65 62 59 57 56 56 57 58 58 58 58 57 55 53 52 50 49 48 47 46 45 46 48 49 50 50 51 52 51 51 50 50
40 38 38 40 43 43 35 26 25 28 28 29 32 36 37 37 37 38 38 39 40 42 45 48 50 51 52 52 51 49 47 46 47 49 50 52 55 56 57 56 56 56 56 56 56 56 57 59 62 64 66 66 65 62 59 57 57 57 58 60 61 61 60 59 57 55 53 51 50 49 47 47 46 46 47 49 50 52 53 54 55 55 54 54 54
42 38 39 42 46 49 44 35 31 31 28 26 28 33 37 39 39 39 38 35 35 37 41 44 47 49 51 50 49 47 45 45 46 47 49 52 55 57 58 58 57 57 56 56 56 57 59 60 62 64 64 63 62 60 58 57 58 59 61 62 63 63 62 59 57 55 53 51 50 49 47 47 47 47 48 50 52 54 55 57 57 57 57 58 58
45 42 42 44 46 49 50 47 42 36 31 27 26 28 33 37 39 39 36 31 31 35 37 38 40 42 43 46 47 47 46 46 47 48 49 50 53 55 57 58 57 57 57 57 58 58 58 59 59 60 60 59 58 58 58 59 60 62 63 65 65 63 60 58 55 53 51 49 49 48 48 48 48 49 50 52 55 57 58 59 59 60 60 61 63
47 47 45 44 44 45 47 47 43 38 36 34 30 28 30 33 34 36 35 31 33 37 39 39 38 36 37 42 45 47 48 48 50 51 51 50 50 52 53 54 54 55 55 55 56 55 55 55 55 55 55 56 56 57 59 60 63 64 66 66 64 60 56 54 51 49 47 47 47 48 48 49 50 51 54 56 58 60 60 61 62 63 64 65 67
47 48 44 40 38 38 38 37 36 35 37 37 33 30 29 27 26 28 29 31 36 41 41 39 36 34 38 45 49 51 54 55 55 54 52 49 47 47 47 48 48 49 50 50 51 52 52 52 52 53 54 55 56 57 61 64 66 66 66 63 58 54 50 48 46 46 45 46 47 49 50 51 53 55 57 59 61 63 63 64 64 66 67 68 70
45 44 40 36 34 35 36 34 32 32 34 34 32 29 26 25 24 24 24 28 36 41 39 38 38 40 47 54 56 56 55 53 50 47 45 43 42 42 43 43 44 45 45 46 47 48 49 51 52 53 54 55 57 60 63 66 65 63 60 56 52 49 47 46 46 47 48 50 51 53 54 55 57 58 59 61 64 65 66 66 67 68 69 71 72
43 41 40 38 37 37 39 37 34 33 33 31 30 28 27 28 29 29 27 28 33 35 35 38 42 46 51 55 55 52 49 46 44 43 42 41 41 41 42 43 45 45 44 44 45 47 49 50 52 53 54 55 57 60 63 63 61 58 55 51 50 49 49 49 50 51 53 55 57 58 59 60 61 62 62 63 64 65 66 67 68 70 72 73 75
40 38 38 39 39 40 40 39 37 36 34 31 29 29 30 30 29 28 29 31 32 30 29 33 40 45 48 50 51 50 50 50 52 53 52 50 48 48 48 48 48 47 45 45 46 47 48 50 52 53 54 55 56 58 59 58 57 55 54 51 50 51 52 53 54 56 58 60 61 63 63 63 63 63 63 63 63 64 66 68 70 73 75 78 80
41 39 36 35 36 38 39 38 38 38 36 33 31 30 31 31 32 31 32 34 35 33 32 36 43 48 50 52 53 54 56 58 59 60 60 59 57 56 55 53 51 50 49 48 48 49 50 52 53 54 54 54 55 56 56 56 55 55 54 53 54 55 56 58 59 61 61 62 62 63 62 61 61 61 62 62 64 66 69 71 74 77 79 82 84
44 43 41 38 35 35 36 36 36 37 36 35 32 29 26 26 30 33 33 34 36 37 38 43 48 52 54 54 54 55 56 57 58 59 59 59 58 58 57 56 54 52 51 51 51 52 52 52 52 52 52 52 52 53 53 53 53 53 53 53 54 55 56 57 58 59 58 58 58 58 59 59 61 63 64 67 69 71 73 75 77 79 82 84 86
46 46 46 45 42 39 37 35 34 35 36 35 35 33 28 25 27 31 33 35 37 39 39 42 45 48 49 50 49 49 51 53 54 54 55 56 56 55 55 54 53 53 53 54 54 53 52 51 51 50 51 50 50 50 50 51 51 51 51 52 51 51 51 53 54 55 56 57 59 60 62 64 66 68 69 71 73 75 76 78 80 82 84 86 88
46 48 50 51 48 45 43 41 38 36 36 37 38 38 35 32 32 34 35 34 34 34 35 37 40 41 42 42 42 43 45 47 49 50 52 53 53 52 52 52 52 52 53 53 53 52 51 50 49 48 48 48 48 48 49 49 50 50 50 50 50 50 50 52 55 58 61 63 64 66 68 69 70 71 72 73 75 77 79 81 83 85 87 89 91
44 48 52 54 53 50 48 46 44 41 39 38 40 41 40 38 36 36 35 34 33 34 35 36 38 38 37 38 39 41 42 44 45 46 47 48 49 50 51 52 52 52 52 51 51 50 49 48 47 46 47 47 48 48 49 49 49 49 50 50 51 53 55 57 60 63 65 66 67 69 70 71 72 73 74 76 77 79 82 84 86 88 90 92 95
44 46 50 54 56 58 58 56 54 51 47 44 44 45 44 42 39 37 36 34 31 32 35 36 37 37 36 36 38 40 41 42 42 43 44 45 46 48 49 50 50 50 50 49 49 49 48 47 47 47 48 49 49 49 49 49 48 49 51 53 55 57 59 60 62 64 65 67 68 69 71 72 73 75 76 78 81 83 86 88 90 92 94 96 99
44 46 47 47 50 55 59 60 59 57 53 50 48 47 46 44 41 41 40 33 25 23 26 28 30 31 32 34 37 40 41 42 42 43 43 44 44 46 47 48 49 49 49 49 48 48 48 48 49 50 50 49 49 49 48 48 48 50 52 55 58 60 62 63 64 65 66 67 68 70 72 73 75 77 80 82 85 87 90 92 94 96 99 101 103
46 48 48 46 44 47 52 55 56 57 57 54 51 49 48 47 45 44 43 39 32 29 27 26 28 30 32 34 38 41 42 43 43 43 43 43 44 45 46 48 49 49 49 49 49 49 50 51 51 51 50 50 49 49 49 49 51 53 56 60 63 64 65 66 67 67 68 69 71 72 74 76 78 80 83 85 88 91 93 96 98 101 103 106 108
47 48 48 45 42 45 49 51 49 50 51 52 51 51 51 51 49 47 45 44 42 41 39 38 39 40 40 42 44 45 46 47 47 47 46 46 45 46 47 48 49 50 50 51 52 52 53 53 53 52 51 50 50 51 52 55 57 59 62 64 66 67 68 69 69 70 71 73 74 76 78 79 81 83 86 89 93 96 98 100 103 105 107 110 113
45 45 45 43 43 46 51 51 47 44 43 43 45 47 49 51 50 47 46 45 45 45 46 46 46 47 48 50 51 50 50 50 50 50 49 49 50 50 50 50 50 50 51 52 54 55 55 55 54 53 52 52 53 55 57 60 62 64 66 68 69 70 70 71 71 72 74 77 78 79 81 82 85 88 92 96 99 101 103 105 107 109 111 115 119
43 44 44 44 45 48 50 51 50 47 43 41 40 41 44 47 49 47 45 44 44 46 47 47 47 47 49 49 50 50 50 50 50 51 51 52 53 53 53 52 51 50 51 52 54 55 55 54 54 54 55 55 57 59 62 64 66 68 69 70 70 71 72 73 74 76 78 79 81 82 85 88 92 95 98 101 103 105 107 109 110 113 117 122 126
42 44 45 46 47 46 45 44 44 42 41 40 40 40 41 43 46 48 48 46 46 47 49 49 49 50 51 51 51 52 53 54 55 55 54 54 54 54 53 53 52 51 52 53 53 54 54 55 55 56 57 58 60 63 66 68 69 70 70 71 72 74 75 76 77 78 79 81 84 88 92 95 99 101 103 104 106 108 110 112 115 119 124 128 131
40 41 42 43 43 41 40 39 37 36 35 35 37 41 43 45 47 49 50 50 50 50 50 51 52 54 55 56 57 57 58 59 59 58 57 56 55 55 55 54 53 53 53 54 54 55 55 56 57 58 59 62 65 67 69 70 71 72 72 73 75 76 77 78 79 81 83 87 90 94 97 100 102 104 105 107 108 110 113 117 121 125 129 131 131
40 39 39 39 38 36 35 34 35 35 35 35 36 38 41 44 47 49 51 52 53 54 55 56 57 58 59 61 61 61 61 61 60 59 58 56 56 56 55 55 54 54 54 55 56 56 57 58 59 61 63 66 68 70 71 72 73 73 74 75 76 78 79 81 84 87 90 93 96 98 101 102 103 105 107 108 111 114 118 123 127 130 132 130 124
40 40 39 37 36 36 34 33 34 34 34 35 36 37 39 43 47 50 52 54 55 56 58 59 61 62 62 63 63 62 61 60 59 58 57 56 55 56 55 55 55 55 55 56 57 58 59 61 62 65 67 69 71 72 72 73 74 75 76 78 79 82 84 86 89 92 94 97 100 101 102 103 105 107 109 113 116 121 125 129 132 133 129 122 113
38 37 36 33 32 32 31 30 29 28 27 28 31 34 37 41 45 47 51 54 55 57 58 60 61 62 62 61 60 59 57 57 56 55 54 54 54 54 54 54 54 54 55 56 58 59 61 63 65 67 69 71 71 72 73 74 76 78 79 81 83 85 88 90 93 95 98 100 101 102 104 106 109 112 115 119 123 127 131 134 133 128 120 111 104
34 32 32 31 29 28 28 28 29 28 27 28 29 30 33 37 39 41 44 47 48 50 51 53 54 55 55 55 54 54 54 54 54 53 52 51 51 52 53 53 53 55 56 58 59 61 64 65 67 69 70 71 72 73 75 77 79 80 82 84 86 89 91 94 96 98 100 101 103 105 108 111 114 118 121 125 129 132 134 133 126 117 108 102 98
37 33 30 28 28 30 31 32 33 32 32 33 33 32 31 34 37 40 42 44 45 46 47 48 48 49 49 50 50 51 51 52 52 51 50 50 51 52 53 54 55 57 59 61 62 64 66 67 68 70 71 72 74 76 78 79 81 83 85 87 90 92 95 97 99 101 102 104 107 110 113 116 119 122 126 129 132 134 131 124 114 105 99 96 95
37 35 32 29 28 30 32 33 33 33 34 36 37 35 34 36 40 42 44 46 48 50 52 52 52 52 51 51 51 51 51 51 51 51 50 50 51 53 55 56 58 60 62 63 64 65 67 68 70 71 73 75 77 79 80 82 84 86 89 91 93 96 98 99 101 103 106 108 111 114 117 120 123 126 129 132 133 129 121 111 102 97 95 94 94
36 31 31 31 30 30 30 30 31 33 36 37 38 38 39 41 44 47 48 50 51 54 56 57 56 56 54 53 52 51 51 51 52 52 52 52 53 55 57 58 60 62 64 65 66 67 68 70 72 73 75 77 79 81 82 84 87 89 92 94 96 98 99 102 104 106 109 111 113 116 119 123 126 129 132 131 127 118 108 100 96 93 93 93 95
39 32 31 33 32 33 33 33 33 34 37 39 41 43 45 46 47 49 50 50 52 54 56 57 56 55 54 52 51 51 51 51 52 52 53 54 55 56 58 60 62 63 65 66 68 69 70 72 74 76 78 79 81 82 84 87 90 92 94 96 97 100 102 104 107 109 111 113 116 119 122 125 129 131 130 124 114 105 97 93 92 92 93 94 96
46 41 35 32 32 34 36 36 36 39 42 45 47 50 51 51 49 49 48 48 49 51 54 55 55 54 53 52 52 52 52 53 53 54 55 56 57 58 60 61 63 65 67 68 69 71 73 75 76 78 79 81 83 85 88 90 92 94 96 98 100 102 104 106 109 111 113 116 118 121 125 128 130 128 121 111 102 95 92 90 90 92 94 96 97
49 47 41 36 36 38 39 39 41 44 45 47 50 52 53 53 53 53 52 51 51 52 53 55 56 56 56 56 56 56 56 56 57 58 58 59 60 61 62 63 65 66 68 70 72 74 76 77 78 79 81 83 86 88 90 92 94 96 98 100 102 104 107 109 111 113 116 119 122 125 128 129 126 118 108 99 93 90 89 89 91 93 95 96 98
47 48 45 42 41 42 42 41 41 41 41 42 45 47 47 49 51 52 52 53 54 54 55 56 58 59 60 60 60 60 60 60 61 61 61 61 62 62 63 64 66 68 71 73 75 77 77 78 80 82 84 86 89 91 92 94 96 98 100 102 105 107 109 111 114 116 119 122 126 129 128 123 114 105 97 92 89 87 88 90 92 94 96 98 99
45 44 44 42 40 40 41 40 40 41 40 40 42 43 43 43 45 47 49 51 52 53 55 56 58 59 60 61 61 62 61 61 62 62 62 63 63 64 65 67 70 72 75 76 76 76 77 79 82 84 86 89 91 92 94 96 98 100 103 105 107 109 112 114 116 119 122 126 128 126 120 111 102 95 90 87 86 87 89 92 94 96 97 98 99
47 45 43 43 42 42 42 44 45 46 44 42 41 41 41 42 44 46 48 51 52 52 53 54 55 56 58 59 60 61 61 61 62 63 64 65 67 69 71 73 75 76 76 76 76 77 79 81 84 86 89 91 92 94 96 99 101 103 106 108 109 111 114 117 120 123 126 127 124 117 107 99 92 88 86 85 86 88 90 93 95 97 98 98 98
Wind_Direction
238 242 243 243 245 245 247 251 257 263 264 260 257 254 252 253 256 258 259 261 263 264 259 256 254 254 256 260 263 266 269 273 276 278 280 282 286 289 290 291 294 297 300 303 308 312 312 312 315 318 318 315 314 316 317 315 310 307 308 309 310 310 310 311 311 311 313 311 309 305 299 295 292 289 288 288 290 291 292 293 294 295 299 302 304
239 241 244 245 248 250 251 253 253 252 257 262 263 259 252 252 255 256 256 257 260 262 261 260 260 259 260 263 265 267 269 271 275 277 279 281 282 284 286 290 293 296 298 301 305 306 306 307 310 314 317 314 311 314 318 318 317 316 314 314 313 313 312 312 310 310 310 309 309 307 303 300 297 293 291 290 291 292 293 295 297 299 301 302 303
240 240 243 248 253 255 254 253 248 242 243 253 262 265 261 256 255 254 255 256 259 263 263 262 262 262 263 264 266 267 268 270 274 278 281 282 282 284 286 288 291 294 295 297 300 299 298 299 301 307 313 313 309 309 312 315 316 317 319 321 322 322 320 316 314 314 312 310 308 305 301 298 296 293 292 291 292 293 294 296 298 300 302 302 301
242 243 246 250 256 257 253 249 245 238 237 243 252 263 270 269 266 262 256 256 260 263 258 256 258 260 261 263 264 266 268 271 275 277 280 281 284 288 290 292 294 292 290 292 295 295 293 294 298 302 307 309 308 305 306 308 311 313 316 318 320 322 322 320 318 318 317 314 310 305 300 297 294 292 291 291 292 293 294 295 296 298 301 301 299
247 246 249 252 256 258 253 246 243 239 239 242 246 252 261 265 262 253 248 250 256 256 249 250 257 260 260 261 263 265 268 270 273 275 276 279 286 291 294 299 299 291 288 290 292 293 293 294 297 299 301 304 305 303 300 300 301 304 308 312 315 319 320 320 318 317 317 316 313 308 302 297 294 292 291 291 292 292 293 294 295 297 299 300 298
249 248 250 252 255 257 254 247 243 241 242 247 248 246 247 248 247 242 241 245 251 251 248 251 257 262 262 263 265 268 268 269 272 272 274 278 285 287 290 294 294 292 294 295 294 294 294 294 295 297 299 302 303 302 300 298 298 300 305 310 313 316 318 318 317 316 316 316 315 310 302 296 294 293 291 291 292 292 293 294 295 297 299 299 299
246 250 251 255 258 257 253 248 246 244 245 248 248 244 242 245 249 248 246 247 249 250 250 252 256 260 263 264 267 271 274 276 277 274 274 278 281 282 284 287 290 294 297 297 296 296 295 293 294 296 298 301 304 305 302 300 301 304 307 310 312 314 316 316 317 317 316 316 316 312 303 295 293 294 293 293 293 293 294 295 296 298 298 299 301
239 248 252 259 263 258 252 249 249 248 248 248 247 244 243 244 250 253 253 251 251 252 252 253 256 258 260 261 263 267 274 278 276 274 276 280 281 283 286 287 289 292 294 295 296 295 294 294 296 298 300 304 306 305 303 301 302 305 308 309 310 311 312 314 315 316 315 315 314 311 304 296 293 294 293 293 294 294 295 297 298 298 298 300 303
235 244 252 263 266 259 251 250 252 251 250 249 248 246 245 246 250 252 253 251 250 250 251 254 256 257 258 258 259 262 268 270 270 273 279 282 284 286 287 288 288 291 293 293 292 292 294 296 298 300 303 304 304 303 302 301 301 302 305 307 307 308 310 311 312 312 312 311 311 310 305 297 293 292 292 293 295 296 297 298 298 298 299 302 305
228 241 254 267 270 263 256 255 257 255 251 248 246 245 246 248 248 246 248 252 249 247 249 252 253 255 257 258 257 258 261 264 270 276 280 282 285 287 287 286 287 290 291 290 290 292 295 298 299 301 301 301 301 301 301 301 300 302 304 306 307 307 308 308 309 309 309 308 308 308 305 299 294 292 292 294 296 297 298 298 296 297 301 303 304
217 234 251 263 273 270 264 261 261 257 251 246 246 247 248 248 246 242 243 247 248 247 248 248 248 252 256 258 258 258 260 265 274 280 282 283 286 287 286 285 286 287 286 285 288 292 295 296 297 297 297 297 298 299 301 303 304 305 306 307 307 307 307 307 308 308 308 307 306 305 302 298 294 292 293 295 296 296 296 295 294 297 301 303 302
208 219 235 250 266 265 255 252 254 253 249 246 246 249 249 247 246 242 240 243 245 246 245 245 247 251 255 258 261 263 266 271 276 280 282 283 285 284 284 284 284 282 281 282 285 288 290 292 293 295 297 298 299 301 302 304 305 306 307 308 308 307 307 308 308 309 307 306 304 301 298 295 293 293 294 295 295 294 293 292 294 298 301 301 299
207 215 222 229 242 245 240 244 249 249 246 245 245 247 248 248 247 245 242 242 244 245 244 245 247 252 257 262 266 268 271 274 278 281 282 282 282 282 282 284 284 282 281 281 283 285 288 291 294 297 300 300 301 302 302 304 305 307 308 309 308 307 307 308 309 308 306 304 302 299 296 294 293 293 294 295 293 292 291 291 294 298 300 297 295
206 212 215 218 228 234 237 243 247 243 240 244 246 245 245 248 249 247 244 242 243 245 247 248 251 257 265 270 273 274 276 277 279 281 281 280 281 281 282 284 285 283 280 280 282 286 290 293 296 298 299 299 300 301 302 304 306 307 308 308 307 307 308 308 308 307 305 303 301 298 295 293 293 294 294 294 292 291 291 292 295 298 297 294 293
201 203 205 209 220 228 234 240 242 239 239 244 247 246 246 247 248 248 247 245 244 247 250 254 258 263 269 273 275 276 276 278 280 281 280 278 279 280 280 283 284 282 280 281 285 289 292 294 295 296 296 297 299 301 303 305 306 307 306 306 306 307 308 308 308 306 304 302 299 297 295 293 293 294 294 293 292 292 292 294 296 296 295 293 293
206 206 205 209 215 223 232 239 240 240 245 248 250 250 249 248 249 251 253 253 252 253 256 259 262 264 267 270 273 275 277 280 282 282 281 279 278 278 278 280 281 280 280 282 286 289 291 292 293 294 296 298 300 302 305 306 306 305 304 305 306 308 309 309 308 307 304 301 298 296 294 293 293 294 293 293 292 292 293 294 295 294 292 291 292
213 213 214 217 219 222 231 239 240 244 251 254 256 256 255 255 258 261 262 263 264 264 264 264 265 267 268 270 273 275 278 281 284 285 284 282 281 279 279 280 281 281 282 284 286 288 290 290 292 294 297 299 301 303 304 304 303 303 303 305 308 310 311 311 309 307 303 300 297 295 293 293 293 293 293 292 292 292 293 293 293 292 291 290 291
217 216 219 223 224 225 230 239 243 249 256 260 260 259 258 260 263 264 265 267 270 271 272 271 271 271 272 274 276 277 280 283 286 288 287 285 283 282 282 282 282 282 283 284 286 287 288 289 292 295 297 299 301 302 302 301 300 300 302 306 309 311 311 310 308 304 301 298 296 294 293 292 293 293 293 292 292 292 292 291 291 291 291 291 292
218 217 220 224 225 226 231 244 251 252 254 255 255 255 254 255 258 261 264 266 269 274 277 275 273 274 274 275 275 278 282 284 286 288 289 288 286 284 283 283 282 282 283 283 284 286 287 290 293 296 298 299 300 300 300 299 298 299 302 305 308 309 310 309 305 301 299 298 296 295 293 293 293 293 293 293 292 292 291 291 291 291 291 291 292
218 218 221 226 228 229 235 245 250 249 247 246 246 250 253 254 256 257 259 259 262 267 270 269 271 274 274 272 272 275 279 281 283 287 289 289 287 286 285 284 284 284 283 283 285 287 289 292 295 297 298 299 299 299 298 297 297 299 301 304 306 308 308 306 303 300 300 301 300 298 296 295 295 294 294 294 293 292 292 292 292 292 292 292 293
221 221 223 226 229 232 237 243 245 245 248 250 246 244 248 253 255 255 255 255 257 259 259 260 264 268 267 268 271 273 273 275 279 284 287 288 287 286 285 285 285 284 284 285 287 290 292 295 297 299 299 299 299 298 296 296 298 300 302 304 306 307 307 305 303 303 304 304 303 301 300 299 298 297 296 295 294 293 292 292 292 292 292 293 293
221 223 225 228 230 232 237 240 242 245 249 250 246 242 245 250 253 254 255 255 256 256 255 256 258 258 260 266 272 274 274 276 278 281 284 286 286 285 286 287 287 288 288 290 292 294 295 297 298 299 299 299 297 296 295 297 300 301 304 305 307 307 307 306 305 306 306 307 307 306 305 303 301 299 298 297 295 293 292 292 292 292 292 293 294
221 223 224 226 229 233 237 239 240 244 246 244 242 240 239 241 240 238 240 245 250 253 254 254 255 255 259 265 270 274 277 278 278 281 285 288 288 290 291 293 294 294 295 295 296 297 298 298 299 299 299 297 295 293 295 298 301 303 304 305 305 304 303 303 303 304 305 307 307 307 307 305 304 302 301 299 297 295 294 294 294 293 294 294 295
223 226 227 228 229 233 238 238 238 240 241 241 241 236 228 228 232 232 229 230 240 249 253 253 252 255 260 264 267 270 273 275 279 286 291 292 293 295 297 298 298 298 297 297 298 299 298 299 299 298 298 296 294 294 297 300 301 302 302 301 301 301 300 300 301 302 303 305 306 306 306 305 304 303 302 300 298 297 296 296 296 296 296 296 296
226 230 232 231 230 232 236 236 234 235 237 239 242 241 234 230 233 237 237 237 241 249 254 252 252 255 260 263 265 267 271 275 280 286 289 291 293 295 296 298 298 298 298 298 299 299 299 299 299 298 297 297 297 297 299 300 301 301 300 299 298 298 298 299 300 301 302 303 304 304 304 304 303 302 301 299 298 298 298 298 297 297 296 296 296
227 228 228 226 225 225 226 226 227 231 235 236 240 245 248 245 243 245 249 252 253 252 249 248 252 257 261 264 267 270 272 274 278 281 285 287 290 291 293 294 295 296 297 298 299 300 300 300 299 298 299 300 299 299 300 301 301 301 300 298 297 297 298 298 300 300 301 302 302 302 302 302 302 301 301 300 300 299 299 298 298 298 298 298 298
225 224 223 221 220 219 218 219 224 230 232 231 234 243 252 252 249 252 258 262 265 264 260 257 259 262 265 269 272 275 276 278 279 281 283 285 287 288 290 291 293 295 297 298 299 299 299 299 299 299 300 300 300 300 301 301 302 302 301 300 299 299 299 299 300 301 302 302 302 302 301 301 301 302 302 302 301 301 300 300 300 300 300 301 301
227 225 224 224 224 223 222 225 231 233 233 231 231 237 241 238 240 252 263 268 270 272 272 270 270 271 273 275 280 283 284 284 285 285 286 286 286 288 290 292 294 296 297 297 297 297 297 298 299 299 300 300 300 301 301 301 302 302 302 301 301 302 302 303 303 304 304 304 304 303 303 303 303 304 304 303 303 303 303 303 303 303 303 303 303
229 226 224 224 226 226 228 234 239 240 238 234 232 234 237 236 241 254 263 267 270 272 274 275 277 278 280 282 286 289 291 291 290 289 289 289 290 292 294 296 296 296 296 296 296 296 297 297 298 298 299 299 300 300 300 301 301 302 302 303 303 304 305 305 305 305 305 305 305 305 305 306 306 306 305 305 304 304 305 305 305 304 304 304 304
230 227 225 226 228 230 232 237 242 245 246 242 238 238 239 241 246 253 258 263 268 271 272 273 274 275 277 282 286 290 294 295 295 295 295 296 296 296 295 295 295 295 294 295 295 296 296 296 297 297 298 298 298 298 299 300 301 302 303 303 304 305 305 305 305 305 305 306 306 306 306 306 306 306 306 305 306 306 306 306 306 305 305 304 303
233 232 230 230 233 235 238 241 245 248 250 247 243 243 244 246 249 252 257 263 271 275 276 273 269 268 273 280 286 291 294 296 298 299 301 301 299 297 294 293 293 293 294 294 295 295 295 295 296 297 297 297 297 297 298 299 301 302 302 303 305 306 306 306 306 306 306 306 306 306 306 306 306 306 306 307 308 308 307 307 306 305 305 304 303
237 238 238 238 238 239 241 244 246 249 250 247 244 244 247 250 252 254 256 258 263 272 276 272 269 271 275 280 285 289 293 295 298 300 301 301 300 298 296 294 294 294 295 294 294 293 294 295 297 297 296 296 296 297 297 298 298 300 302 305 307 308 308 308 308 307 306 306 306 306 307 307 307 307 308 308 308 308 307 306 306 305 304 304 304
238 240 243 247 246 241 240 243 245 246 246 245 243 244 247 250 253 256 258 256 253 252 255 261 271 280 284 285 286 289 292 294 297 298 299 300 301 301 300 299 298 297 296 295 293 293 294 296 296 296 295 294 295 295 295 296 298 300 302 305 307 308 308 308 307 307 307 307 307 307 307 307 308 308 308 308 308 307 306 306 306 306 306 308 309
239 241 244 249 248 240 237 238 241 243 243 244 245 247 250 253 255 256 258 257 255 254 255 262 273 282 286 287 286 287 289 291 293 295 297 299 300 301 303 303 302 300 297 295 294 294 295 295 295 293 292 292 293 294 295 297 300 302 304 306 307 308 307 307 306 307 307 308 308 308 308 308 308 308 308 307 307 307 307 307 308 309 311 312 312
238 240 243 245 242 238 237 238 239 242 245 247 249 252 254 256 257 258 258 258 257 256 257 263 271 277 280 281 281 282 285 287 289 292 295 297 300 302 304 305 305 303 298 295 293 294 294 294 292 291 290 290 291 294 297 300 302 304 306 307 307 306 306 306 307 307 308 308 309 309 308 308 307 307 307 308 308 308 309 310 312 313 313 312 311
234 235 237 238 237 238 241 243 245 248 252 255 258 259 259 258 257 256 257 260 261 259 259 262 267 272 275 276 277 279 283 286 289 293 296 299 300 302 303 304 303 301 297 294 293 294 294 293 291 290 290 291 293 297 300 302 304 305 305 305 305 305 305 306 307 308 308 308 308 308 307 307 307 308 308 309 310 312 313 314 313 312 311 311 311
234 235 237 239 241 244 248 251 253 257 262 264 265 264 262 259 256 254 255 258 262 264 264 265 266 269 272 274 277 280 284 288 291 294 296 299 300 301 301 301 300 298 296 294 294 294 293 291 290 290 291 293 296 299 301 302 303 304 304 303 304 304 305 306 307 307 307 307 306 307 307 308 309 309 311 312 314 314 314 312 311 311 311 311 312
235 237 239 242 245 249 254 258 261 264 267 269 270 268 263 259 256 254 254 255 259 263 266 267 268 270 272 275 278 281 284 288 290 292 295 297 299 299 299 299 297 296 294 293 292 292 291 290 290 291 292 294 297 299 300 301 302 302 302 303 303 304 305 306 306 306 305 306 307 308 309 310 311 313 314 314 313 312 311 310 311 312 312 313 313
233 235 238 241 243 248 254 260 263 265 268 271 272 269 263 259 258 257 257 257 258 260 263 266 268 270 271 274 277 280 283 286 289 291 293 296 297 297 297 296 295 294 293 291 291 290 290 291 292 292 294 296 297 298 299 300 301 301 302 302 303 304 304 305 305 305 306 307 308 309 311 312 314 314 313 312 310 310 311 312 313 313 314 314 313
233 235 237 240 244 249 255 263 267 269 271 273 272 266 260 259 262 263 264 263 262 262 264 267 269 271 273 275 278 282 285 287 289 292 294 295 296 295 295 294 294 293 291 291 290 290 291 292 293 294 295 296 297 298 299 299 300 300 301 302 303 304 305 305 306 307 308 309 311 312 313 313 313 311 311 311 311 312 313 314 315 315 315 314 313
238 244 247 248 250 254 257 261 264 263 261 263 266 267 265 266 268 268 267 266 266 266 267 269 272 274 277 280 282 285 287 289 291 292 294 294 293 293 293 293 292 292 291 291 291 291 291 292 292 293 294 296 297 297 298 299 300 301 302 303 304 305 306 307 308 309 311 312 313 313 313 312 311 312 312 313 314 315 316 316 316 316 315 314 314
248 256 258 254 252 253 255 256 257 254 246 244 250 259 266 269 269 269 268 269 269 270 272 273 275 278 281 283 286 287 289 290 291 292 292 291 291 290 291 291 290 290 290 289 289 290 291 291 292 293 294 296 297 298 299 300 301 302 304 305 305 306 307 309 310 312 313 313 313 312 312 312 313 314 314 315 316 316 316 316 316 315 315 314 314
251 252 252 249 246 247 251 253 254 249 243 240 243 250 256 259 260 263 268 272 274 276 277 279 280 282 284 285 287 288 288 289 290 290 290 290 289 289 289 289 289 289 288 289 289 290 291 292 293 294 296 297 298 299 300 301 302 304 304 305 307 308 310 311 312 312 313 312 312 313 313 314 314 315 315 316 316 316 316 316 315 314 314 314 314
245 245 246 247 246 245 248 250 250 248 246 245 245 248 253 257 259 263 270 275 278 279 280 282 284 286 286 287 287 287 287 287 287 287 287 286 286 286 287 288 288 288 288 289 290 291 292 293 295 296 297 297 298 299 301 302 304 305 306 308 309 311 312 312 312 312 312 313 313 314 314 314 315 315 316 316 316 316 316 315 314 314 313 313 313
238 242 245 245 241 240 242 244 244 246 248 248 247 252 259 263 264 267 272 276 279 280 281 283 285 287 288 288 288 287 286 286 285 285 285 285 285 286 287 287 288 288 289 290 291 293 294 295 296 296 297 298 299 301 303 305 306 307 309 310 311 312 312 312 312 312 313 313 314 314 314 314 315 315 316 316 316 315 314 314 313 313 313 313 314
231 233 238 239 237 237 240 240 240 243 246 247 252 262 270 272 270 270 272 274 276 277 279 281 283 285 286 286 286 286 285 285 285 285 286 286 286 287 287 288 289 290 291 292 294 295 295 296 296 297 298 300 302 304 305 306 308 309 310 311 311 311 311 311 312 312 313 313 313 313 313 314 314 315 315 315 315 314 313 313 313 314 314 314 315
226 224 228 233 235 236 239 241 241 243 246 249 256 265 272 274 274 275 275 273 273 273 275 277 280 281 282 283 283 283 283 284 284 285 286 286 287 288 289 291 292 293 294 295 296 296 296 297 298 299 300 302 303 305 306 308 309 310 310 310 310 311 311 311 311 311 311 311 312 313 313 314 315 315 315 314 313 313 313 314 314 314 315 316 316
227 224 227 232 233 235 240 247 251 253 254 257 261 266 270 272 274 275 276 276 274 273 272 273 275 277 278 280 280 281 283 284 285 286 287 288 290 291 293 294 295 295 296 296 296 297 297 298 299 301 302 303 305 307 308 308 309 309 309 309 310 310 310 310 310 310 311 311 312 313 314 315 315 315 314 314 314 314 314 315 315 316 317 317 318
228 228 230 234 236 237 243 253 260 261 262 265 268 270 271 273 274 274 275 276 276 275 275 274 275 275 277 278 280 282 284 285 287 289 290 291 293 294 295 295 295 295 295 296 297 298 299 300 301 303 304 305 306 307 307 308 308 308 308 309 309 309 309 309 309 310 311 312 313 314 315 315 315 314 314 314 314 315 315 316 317 318 318 319 319
224 225 227 230 232 235 241 249 256 260 263 266 269 270 270 271 272 274 275 276 277 278 279 280 281 280 281 282 283 285 286 287 289 290 291 293 293 294 293 293 293 294 295 297 298 299 301 301 302 303 304 305 306 306 306 306 307 307 307 307 308 308 308 308 309 310 311 313 314 314 315 314 314 314 314 315 315 316 317 318 319 319 320 320 320
221 222 225 229 233 238 244 249 253 256 258 262 265 266 268 269 271 274 277 278 279 281 282 284 284 284 284 285 285 286 287 287 288 289 289 290 290 290 291 292 293 295 297 298 299 300 300 301 301 302 303 304 304 305 305 305 305 306 306 306 307 307 308 309 310 311 312 313 314 314 314 314 314 314 315 316 317 318 319 319 320 320 320 321 321
Height
10979 10982 10983 10985 10987 10987 10988 10989 10990 10990 10991 10991 10992 10993 10994 10995 10995 10995 10995 10995 10995 10995 10995 10995 10995 10994 10994 10994 10994 10994 10994 10995 10995 10995 10995 10995 10995 10995 10995 10995 10995 10994 10994 10993 10993 10993 10992 10991 10991 10990 10988 10987 10985 10984 10982 10981 10979 10977 10976 10975 10974 10973 10972 10971 10970 10969 10967 10965 10964 10964 10962 10961 10960 10958 10957 10956 10955 10953 10951 10950 10948 10946 10944 10942 10940
10977 10979 10980 10982 10983 10984 10985 10986 10987 10988 10988 10989 10990 10990 10991 10992 10992 10993 10993 10993 10992 10991 10991 10991 10991 10991 10991 10991 10991 10992 10992 10992 10991 10992 10992 10992 10992 10992 10992 10992 10992 10992 10991 10991 10990 10990 10990 10989 10988 10987 10986 10984 10983 10981 10979 10978 10976 10975 10974 10973 10972 10970 10969 10968 10967 10965 10964 10962 10960 10959 10958 10957 10956 10954 10953 10952 10950 10949 10947 10945 10943 10941 10939 10937 10935
10973 10976 10977 10978 10979 10980 10982 10983 10984 10985 10986 10986 10987 10988 10989 10990 10990 10990 10991 10989 10988 10987 10987 10987 10987 10988 10988 10988 10988 10988 10988 10988 10989 10989 10989 10989 10989 10989 10989 10990 10989 10989 10989 10988 10988 10987 10986 10985 10984 10984 10983 10982 10980 10979 10977 10976 10974 10972 10971 10970 10969 10967 10966 10964 10963 10962 10960 10959 10957 10956 10954 10953 10952 10950 10949 10947 10946 10944 10942 10940 10938 10936 10934 10932 10930
10969 10972 10973 10975 10976 10976 10977 10979 10981 10982 10983 10983 10984 10985 10987 10987 10989 10991 10990 10985 10983 10982 10981 10980 10982 10983 10985 10985 10985 10985 10985 10986 10986 10986 10985 10985 10986 10986 10986 10986 10987 10987 10986 10985 10984 10984 10983 10982 10981 10981 10980 10979 10978 10976 10975 10973 10971 10970 10968 10966 10965 10963 10962 10960 10959 10958 10957 10955 10953 10952 10950 10948 10947 10945 10944 10942 10941 10939 10937 10935 10933 10931 10929 10927 10924
10966 10968 10970 10971 10972 10972 10973 10975 10976 10978 10979 10980 10981 10983 10985 10986 10989 10988 10983 10977 10976 10975 10974 10975 10978 10980 10981 10981 10982 10982 10983 10983 10983 10983 10982 10982 10982 10983 10983 10983 10984 10984 10983 10981 10981 10980 10979 10978 10977 10977 10976 10975 10974 10973 10972 10970 10968 10966 10965 10963 10961 10959 10958 10957 10955 10954 10953 10951 10949 10947 10945 10943 10941 10940 10938 10937 10935 10933 10931 10929 10927 10925 10923 10921 10919
10964 10965 10966 10967 10968 10968 10969 10971 10972 10973 10975 10976 10977 10980 10983 10984 10983 10980 10974 10972 10973 10972 10971 10974 10976 10978 10978 10978 10979 10979 10979 10980 10980 10979 10979 10979 10979 10979 10980 10981 10981 10980 10978 10977 10976 10976 10975 10974 10973 10972 10972 10971 10970 10968 10967 10965 10964 10963 10961 10959 10957 10955 10953 10952 10950 10949 10948 10946 10944 10942 10940 10938 10936 10934 10933 10931 10928 10926 10924 10923 10920 10918 10916 10915 10912
10960 10961 10962 10963 10964 10965 10966 10967 10968 10969 10970 10971 10973 10976 10979 10977 10975 10973 10971 10971 10972 10971 10971 10972 10974 10975 10976 10977 10977 10977 10977 10976 10976 10975 10975 10975 10975 10975 10975 10976 10976 10975 10973 10972 10971 10971 10970 10969 10969 10968 10967 10966 10965 10963 10962 10961 10959 10958 10956 10954 10952 10950 10948 10946 10945 10943 10941 10939 10938 10936 10934 10931 10929 10928 10927 10925 10922 10920 10918 10916 10914 10912 10910 10908 10906
10955 10957 10958 10960 10961 10962 10963 10963 10964 10964 10965 10967 10968 10971 10973 10971 10969 10970 10970 10970 10969 10970 10970 10970 10971 10973 10974 10974 10975 10975 10975 10975 10973 10971 10970 10971 10971 10970 10970 10970 10970 10969 10968 10967 10966 10966 10965 10965 10964 10963 10962 10961 10960 10958 10957 10956 10954 10952 10951 10949 10947 10945 10943 10941 10938 10936 10934 10933 10932 10930 10928 10925 10923 10921 10920 10918 10916 10914 10912 10909 10907 10905 10903 10902 10900
10951 10953 10954 10956 10958 10960 10960 10961 10960 10960 10960 10962 10964 10966 10967 10965 10964 10966 10967 10967 10967 10968 10968 10968 10968 10969 10970 10971 10972 10972 10972 10972 10970 10969 10967 10966 10966 10966 10965 10965 10964 10964 10963 10962 10962 10961 10961 10960 10958 10957 10957 10956 10955 10954 10952 10950 10949 10947 10945 10943 10942 10940 10937 10934 10932 10930 10928 10927 10925 10923 10921 10919 10917 10915 10913 10911 10909 10907 10905 10903 10901 10898 10896 10895 10893
10945 10950 10951 10953 10955 10958 10960 10959 10958 10957 10956 10956 10958 10959 10960 10959 10960 10963 10964 10964 10964 10964 10964 10964 10965 10965 10966 10967 10968 10970 10969 10967 10965 10965 10964 10962 10962 10961 10960 10960 10959 10959 10959 10958 10957 10957 10956 10955 10953 10952 10951 10951 10950 10948 10947 10945 10944 10942 10940 10937 10935 10933 10931 10928 10925 10923 10921 10920 10918 10916 10914 10912 10910 10908 10906 10904 10902 10900 10898 10896 10894 10892 10890 10888 10886
10938 10946 10950 10952 10954 10958 10959 10956 10954 10951 10948 10949 10951 10952 10953 10955 10956 10959 10960 10959 10959 10959 10960 10960 10960 10961 10961 10962 10964 10966 10965 10962 10960 10960 10959 10958 10957 10957 10956 10955 10955 10955 10955 10954 10953 10953 10951 10950 10949 10948 10947 10946 10944 10943 10941 10939 10937 10935 10933 10931 10928 10925 10923 10920 10918 10916 10914 10912 10910 10908 10906 10903 10902 10900 10898 10896 10895 10893 10891 10890 10888 10886 10884 10882 10880
10930 10939 10946 10950 10954 10957 10956 10950 10945 10941 10938 10940 10944 10946 10948 10950 10952 10954 10955 10954 10954 10955 10955 10956 10956 10956 10956 10957 10957 10959 10958 10956 10955 10954 10954 10953 10953 10952 10952 10951 10950 10950 10950 10950 10949 10948 10946 10945 10943 10942 10941 10939 10938 10936 10934 10932 10929 10927 10925 10923 10920 10917 10915 10913 10911 10908 10906 10904 10902 10900 10898 10896 10894 10892 10891 10890 10888 10886 10885 10883 10882 10880 10878 10876 10875
10924 10930 10936 10942 10948 10950 10947 10940 10935 10932 10931 10934 10939 10941 10943 10945 10947 10948 10949 10949 10950 10950 10950 10951 10951 10951 10951 10951 10951 10951 10951 10951 10950 10949 10949 10949 10948 10948 10947 10946 10946 10945 10945 10944 10944 10942 10940 10939 10937 10936 10934 10932 10930 10928 10926 10924 10921 10918 10917 10915 10912 10909 10908 10906 10904 10901 10898 10896 10894 10893 10891 10889 10887 10885 10884 10883 10882 10880 10878 10877 10875 10874 10872 10870 10868
10917 10922 10928 10934 10936 10934 10931 10927 10925 10926 10929 10933 10935 10935 10937 10939 10940 10942 10943 10944 10945 10945 10946 10946 10946 10946 10946 10945 10945 10946 10946 10945 10945 10945 10944 10944 10943 10943 10942 10941 10940 10940 10939 10938 10937 10936 10934 10932 10931 10930 10928 10926 10924 10921 10918 10915 10912 10910 10909 10907 10904 10902 10900 10899 10896 10893 10890 10888 10887 10886 10884 10882 10881 10879 10878 10876 10875 10873 10872 10870 10869 10867 10865 10863 10861
10911 10914 10919 10922 10920 10916 10916 10918 10920 10923 10926 10929 10930 10930 10931 10932 10934 10936 10938 10940 10941 10941 10942 10942 10942 10942 10942 10941 10941 10941 10941 10941 10940 10940 10939 10938 10937 10937 10936 10935 10935 10935 10933 10932 10931 10929 10927 10926 10925 10923 10921 10919 10917 10914 10911 10908 10905 10903 10901 10900 10897 10895 10893 10891 10889 10886 10883 10881 10879 10878 10877 10875 10874 10872 10871 10869 10868 10866 10864 10863 10862 10860 10858 10856 10854
10909 10909 10909 10908 10906 10906 10910 10914 10918 10919 10921 10923 10924 10925 10926 10928 10930 10933 10935 10937 10938 10938 10938 10938 10938 10938 10937 10936 10936 10937 10936 10935 10935 10934 10933 10932 10932 10931 10930 10929 10929 10929 10928 10926 10925 10923 10921 10920 10918 10917 10915 10912 10910 10907 10905 10901 10898 10896 10894 10893 10891 10889 10886 10884 10881 10879 10877 10874 10872 10871 10869 10868 10867 10865 10864 10862 10860 10859 10857 10856 10854 10852 10850 10849 10846
10906 10907 10906 10905 10906 10909 10912 10913 10915 10916 10917 10919 10920 10922 10924 10925 10928 10930 10932 10933 10933 10933 10933 10933 10933 10933 10932 10931 10931 10931 10930 10929 10928 10928 10927 10926 10925 10924 10923 10923 10923 10922 10921 10919 10917 10916 10915 10914 10912 10910 10908 10905 10903 10901 10898 10895 10892 10889 10887 10886 10884 10882 10880 10877 10874 10872 10870 10868 10866 10864 10862 10861 10859 10858 10856 10854 10853 10851 10850 10848 10846 10844 10842 10840 10838
10903 10906 10908 10908 10909 10911 10911 10910 10911 10913 10914 10916 10917 10918 10921 10923 10925 10927 10929 10930 10931 10930 10929 10929 10928 10926 10925 10925 10925 10925 10925 10924 10923 10922 10921 10920 10918 10917 10916 10916 10916 10916 10914 10912 10910 10909 10908 10907 10905 10903 10900 10898 10896 10894 10892 10889 10886 10884 10881 10879 10877 10875 10873 10870 10868 10865 10863 10861 10859 10857 10856 10854 10853 10851 10849 10847 10846 10844 10843 10840 10838 10836 10834 10831 10829
10899 10904 10906 10905 10904 10904 10905 10906 10908 10910 10911 10912 10913 10915 10917 10919 10922 10924 10927 10930 10932 10930 10927 10924 10921 10920 10919 10919 10919 10919 10920 10919 10918 10917 10916 10914 10912 10910 10909 10910 10910 10909 10907 10905 10903 10902 10901 10899 10897 10895 10893 10890 10888 10887 10885 10883 10880 10878 10876 10874 10871 10869 10866 10863 10861 10858 10856 10854 10852 10851 10849 10848 10846 10844 10842 10841 10839 10836 10834 10832 10830 10828 10825 10823 10821
10895 10897 10898 10898 10899 10900 10900 10902 10904 10906 10907 10909 10911 10913 10915 10916 10919 10921 10926 10930 10932 10929 10925 10920 10917 10916 10915 10913 10913 10914 10914 10914 10913 10912 10911 10909 10907 10904 10903 10904 10904 10903 10901 10898 10896 10895 10893 10891 10890 10888 10885 10883 10881 10880 10878 10875 10873 10871 10870 10868 10865 10862 10859 10856 10853 10851 10849 10848 10846 10844 10843 10841 10840 10837 10835 10833 10831 10829 10826 10824 10822 10819 10817 10815 10813
10889 10890 10891 10893 10896 10897 10898 10899 10902 10904 10905 10906 10908 10911 10913 10914 10916 10918 10922 10926 10926 10921 10917 10915 10914 10914 10911 10908 10908 10909 10908 10908 10907 10907 10906 10904 10902 10899 10898 10897 10898 10897 10895 10892 10890 10888 10886 10884 10883 10881 10879 10877 10875 10873 10870 10868 10866 10864 10862 10861 10859 10855 10852 10849 10847 10845 10843 10841 10840 10838 10837 10835 10833 10831 10828 10826 10824 10821 10818 10816 10814 10811 10809 10807 10805
10884 10886 10889 10892 10894 10895 10896 10897 10899 10901 10902 10902 10904 10907 10909 10912 10914 10916 10919 10920 10915 10909 10908 10909 10909 10909 10906 10904 10904 10903 10902 10902 10902 10901 10901 10899 10897 10894 10892 10891 10891 10890 10888 10886 10884 10882 10880 10878 10876 10874 10873 10871 10869 10866 10863 10860 10858 10857 10855 10853 10851 10848 10845 10843 10841 10839 10837 10835 10834 10832 10830 10828 10826 10824 10822 10819 10816 10813 10811 10808 10806 10803 10800 10798 10796
10880 10883 10886 10888 10889 10891 10892 10894 10895 10897 10898 10899 10901 10903 10905 10906 10907 10909 10912 10911 10904 10900 10902 10904 10904 10903 10901 10899 10898 10898 10898 10897 10897 10896 10895 10894 10892 10889 10887 10885 10884 10884 10882 10880 10877 10875 10874 10872 10870 10867 10866 10864 10862 10859 10856 10853 10851 10850 10848 10846 10844 10842 10839 10838 10835 10833 10831 10829 10827 10826 10823 10821 10819 10817 10815 10811 10808 10805 10802 10800 10798 10795 10791 10789 10786
10876 10879 10881 10882 10885 10887 10888 10891 10892 10893 10895 10897 10898 10899 10899 10898 10899 10902 10904 10902 10898 10897 10898 10898 10897 10896 10895 10894 10894 10894 10894 10893 10892 10891 10890 10888 10887 10885 10882 10880 10878 10877 10876 10873 10871 10869 10867 10865 10863 10860 10859 10858 10856 10852 10849 10847 10844 10842 10841 10840 10838 10835 10833 10831 10829 10826 10824 10822 10820 10818 10816 10813 10811 10809 10807 10804 10800 10796 10793 10790 10787 10784 10781 10778 10775
10872 10875 10876 10878 10880 10882 10884 10887 10889 10890 10892 10894 10895 10896 10895 10894 10896 10897 10897 10896 10895 10895 10895 10893 10891 10890 10889 10889 10889 10889 10889 10888 10886 10885 10884 10883 10881 10880 10877 10875 10873 10872 10870 10867 10865 10863 10861 10858 10856 10853 10851 10851 10848 10845 10842 10839 10837 10835 10834 10833 10832 10829 10827 10824 10822 10819 10817 10815 10812 10810 10808 10805 10803 10800 10798 10795 10791 10788 10784 10781 10778 10774 10770 10766 10763
10868 10870 10872 10873 10875 10877 10879 10882 10884 10885 10888 10890 10891 10892 10892 10892 10893 10893 10892 10892 10892 10893 10892 10889 10887 10885 10885 10884 10884 10884 10883 10883 10882 10880 10879 10877 10876 10875 10872 10870 10868 10866 10864 10861 10859 10856 10854 10852 10849 10846 10844 10843 10841 10837 10833 10831 10829 10827 10826 10825 10824 10822 10820 10817 10814 10812 10810 10808 10805 10803 10800 10798 10795 10793 10790 10787 10783 10779 10776 10772 10768 10764 10759 10753 10749
10862 10865 10868 10869 10871 10873 10875 10877 10878 10880 10882 10885 10887 10888 10889 10890 10889 10887 10886 10887 10886 10886 10886 10885 10883 10881 10881 10880 10880 10879 10879 10878 10877 10875 10873 10872 10871 10869 10867 10864 10862 10859 10857 10855 10852 10850 10848 10846 10843 10840 10838 10836 10834 10830 10827 10824 10822 10820 10819 10817 10816 10814 10812 10809 10806 10804 10802 10801 10798 10796 10794 10791 10788 10786 10782 10778 10774 10770 10766 10762 10758 10753 10747 10742 10736
10858 10862 10865 10866 10868 10870 10871 10872 10874 10875 10876 10879 10881 10883 10884 10884 10883 10881 10880 10880 10879 10879 10879 10879 10878 10877 10876 10876 10876 10875 10874 10873 10871 10870 10867 10866 10864 10863 10860 10857 10855 10853 10851 10848 10846 10844 10842 10840 10837 10834 10831 10829 10827 10824 10821 10818 10816 10814 10812 10810 10809 10808 10805 10801 10798 10796 10794 10793 10790 10788 10785 10783 10780 10777 10773 10768 10763 10759 10755 10751 10746 10741 10736 10730 10724
10854 10858 10861 10862 10863 10865 10866 10867 10868 10869 10870 10872 10874 10876 10877 10877 10876 10875 10875 10874 10873 10873 10872 10872 10872 10871 10870 10871 10870 10869 10868 10868 10866 10864 10862 10860 10858 10856 10853 10851 10849 10847 10845 10842 10840 10837 10835 10833 10830 10828 10825 10823 10821 10818 10815 10813 10811 10809 10806 10804 10803 10801 10798 10795 10791 10788 10786 10784 10781 10778 10775 10772 10769 10766 10762 10757 10753 10748 10744 10740 10735 10729 10724 10718 10713
10850 10853 10855 10857 10858 10860 10861 10862 10863 10864 10865 10866 10867 10869 10870 10870 10870 10870 10869 10869 10869 10868 10866 10865 10865 10864 10864 10864 10864 10864 10863 10862 10860 10858 10855 10853 10851 10849 10846 10845 10843 10842 10840 10837 10834 10831 10829 10826 10824 10822 10820 10818 10816 10814 10811 10808 10805 10803 10800 10798 10796 10794 10791 10788 10785 10781 10778 10776 10772 10769 10765 10762 10759 10755 10750 10746 10742 10737 10733 10728 10723 10718 10713 10707 10700
10845 10848 10850 10852 10854 10856 10857 10858 10858 10859 10861 10862 10863 10863 10863 10864 10864 10864 10864 10865 10865 10863 10861 10859 10858 10858 10859 10859 10858 10858 10857 10856 10854 10852 10849 10848 10846 10843 10841 10839 10838 10836 10834 10832 10829 10826 10823 10821 10818 10817 10815 10813 10810 10808 10806 10803 10801 10798 10794 10791 10789 10786 10784 10781 10778 10775 10771 10768 10764 10760 10757 10752 10748 10744 10739 10734 10730 10725 10720 10715 10710 10705 10700 10694 10688
10840 10843 10845 10848 10850 10851 10853 10853 10854 10855 10857 10858 10858 10858 10858 10858 10859 10858 10859 10862 10863 10860 10856 10852 10850 10851 10853 10853 10852 10852 10852 10850 10848 10846 10844 10843 10841 10838 10836 10834 10832 10830 10828 10826 10823 10820 10818 10815 10813 10811 10810 10807 10805 10802 10800 10798 10796 10792 10788 10784 10781 10779 10776 10773 10770 10767 10764 10761 10757 10752 10748 10743 10738 10733 10728 10723 10719 10714 10708 10703 10697 10691 10685 10679 10672
10836 10837 10839 10842 10845 10847 10848 10849 10850 10851 10852 10852 10852 10853 10853 10853 10853 10853 10854 10857 10858 10855 10851 10846 10844 10844 10845 10846 10846 10846 10846 10844 10843 10841 10839 10838 10836 10833 10831 10828 10826 10824 10822 10819 10817 10814 10812 10810 10808 10805 10803 10801 10798 10796 10794 10792 10789 10786 10782 10778 10775 10771 10768 10765 10761 10758 10754 10751 10747 10743 10739 10734 10729 10724 10719 10713 10708 10703 10697 10691 10684 10677 10670 10662 10654
10832 10833 10835 10838 10841 10843 10845 10846 10846 10847 10847 10847 10847 10848 10847 10847 10847 10847 10849 10850 10850 10848 10844 10840 10838 10837 10837 10838 10838 10839 10839 10838 10837 10835 10834 10832 10829 10827 10825 10823 10821 10818 10815 10812 10810 10808 10806 10804 10802 10800 10797 10795 10792 10790 10787 10784 10781 10777 10774 10771 10767 10764 10760 10756 10752 10748 10744 10740 10737 10733 10728 10724 10719 10714 10709 10703 10697 10691 10685 10678 10670 10662 10654 10646 10637
10828 10828 10830 10833 10836 10839 10841 10842 10842 10842 10843 10843 10843 10842 10842 10841 10841 10841 10842 10843 10843 10841 10839 10836 10834 10833 10832 10832 10832 10833 10832 10831 10830 10829 10827 10825 10822 10820 10818 10816 10815 10812 10809 10806 10803 10802 10800 10798 10795 10793 10791 10788 10786 10784 10780 10776 10772 10769 10766 10762 10759 10755 10752 10747 10743 10738 10734 10730 10726 10722 10717 10713 10708 10703 10697 10691 10684 10678 10670 10662 10654 10646 10638 10630 10622
10823 10823 10824 10827 10831 10835 10836 10836 10837 10837 10838 10837 10837 10836 10835 10835 10835 10835 10835 10835 10835 10835 10834 10832 10830 10829 10828 10828 10828 10827 10826 10824 10823 10822 10821 10818 10816 10813 10811 10810 10808 10805 10802 10799 10797 10795 10794 10791 10788 10786 10784 10781 10779 10776 10772 10768 10764 10761 10758 10754 10751 10747 10743 10739 10734 10730 10725 10720 10715 10710 10706 10701 10696 10690 10684 10678 10670 10662 10654 10646 10638 10630 10623 10615 10606
10818 10819 10820 10823 10827 10830 10831 10831 10831 10832 10832 10831 10830 10829 10829 10829 10828 10829 10829 10829 10829 10828 10827 10827 10825 10824 10823 10823 10822 10821 10819 10817 10816 10815 10813 10811 10808 10806 10805 10803 10801 10799 10795 10792 10789 10788 10786 10784 10781 10779 10777 10774 10771 10768 10764 10761 10757 10754 10750 10746 10742 10738 10734 10730 10726 10722 10717 10712 10706 10700 10694 10688 10682 10676 10669 10662 10654 10646 10638 10631 10624 10616 10608 10598 10588
10814 10816 10817 10820 10823 10825 10825 10825 10826 10826 10825 10825 10824 10822 10821 10821 10821 10822 10822 10823 10823 10822 10821 10820 10819 10818 10817 10816 10815 10814 10812 10810 10809 10808 10806 10804 10801 10799 10797 10796 10795 10792 10789 10785 10782 10781 10779 10777 10775 10772 10769 10766 10763 10760 10757 10753 10750 10746 10742 10738 10734 10730 10726 10722 10718 10713 10708 10703 10696 10689 10682 10675 10668 10660 10653 10646 10640 10633 10626 10618 10610 10602 10592 10581 10569
10810 10812 10813 10815 10818 10820 10820 10820 10819 10819 10819 10819 10818 10815 10814 10814 10814 10815 10816 10816 10816 10815 10815 10813 10812 10811 10810 10810 10809 10808 10806 10803 10802 10801 10799 10797 10794 10791 10789 10789 10787 10785 10782 10779 10777 10774 10771 10769 10767 10764 10761 10758 10755 10752 10749 10745 10741 10738 10734 10730 10726 10722 10718 10713 10708 10703 10697 10691 10685 10678 10670 10663 10656 10649 10642 10636 10629 10622 10614 10605 10595 10585 10574 10562 10551
10805 10806 10809 10812 10815 10816 10816 10815 10814 10813 10813 10812 10810 10808 10807 10807 10808 10809 10810 10810 10809 10808 10807 10806 10804 10803 10802 10802 10802 10801 10798 10796 10794 10794 10793 10790 10786 10783 10781 10781 10780 10778 10775 10773 10770 10768 10765 10762 10759 10756 10753 10750 10747 10744 10740 10737 10733 10729 10725 10721 10717 10713 10708 10702 10697 10690 10684 10678 10671 10664 10658 10651 10645 10639 10632 10624 10616 10607 10597 10587 10576 10565 10554 10543 10533
10801 10803 10807 10811 10812 10812 10811 10810 10809 10807 10806 10804 10803 10802 10800 10800 10802 10803 10802 10802 10801 10801 10800 10799 10797 10795 10794 10794 10794 10793 10791 10789 10788 10787 10786 10783 10779 10776 10774 10773 10772 10770 10767 10765 10763 10761 10758 10755 10752 10749 10746 10743 10739 10736 10732 10728 10724 10720 10716 10712 10707 10702 10697 10691 10685 10678 10672 10665 10658 10652 10646 10639 10632 10625 10616 10607 10597 10587 10577 10567 10556 10545 10535 10525 10517
10801 10803 10804 10807 10807 10807 10807 10806 10804 10803 10801 10800 10799 10799 10796 10794 10795 10795 10795 10794 10794 10794 10792 10791 10789 10788 10786 10786 10786 10785 10784 10782 10782 10781 10780 10777 10773 10770 10768 10766 10765 10762 10760 10758 10755 10753 10750 10748 10744 10741 10738 10735 10731 10727 10722 10718 10714 10711 10707 10702 10697 10691 10686 10680 10673 10667 10660 10654 10648 10641 10634 10625 10617 10608 10599 10589 10580 10570 10559 10549 10539 10530 10521 10513 10505
10798 10798 10799 10801 10802 10802 10802 10801 10800 10799 10797 10795 10795 10795 10793 10790 10789 10789 10789 10788 10788 10787 10785 10784 10783 10781 10780 10780 10779 10778 10777 10776 10775 10774 10773 10771 10767 10763 10761 10759 10757 10755 10752 10750 10748 10745 10743 10740 10736 10733 10730 10726 10722 10717 10713 10709 10706 10701 10697 10691 10686 10680 10674 10668 10661 10655 10648 10642 10635 10627 10618 10610 10601 10592 10583 10574 10565 10555 10545 10535 10526 10518 10510 10503 10495
10791 10794 10797 10798 10797 10796 10796 10796 10795 10794 10792 10790 10789 10789 10788 10786 10784 10784 10784 10783 10782 10780 10778 10777 10776 10775 10774 10773 10772 10771 10770 10769 10768 10767 10766 10765 10762 10758 10755 10752 10749 10747 10744 10743 10741 10738 10735 10732 10728 10725 10721 10717 10713 10709 10705 10700 10696 10691 10686 10680 10675 10669 10662 10656 10650 10643 10636 10628 10620 10612 10603 10595 10587 10578 10570 10561 10552 10542 10532 10524 10516 10508 10500 10493 10486
10791 10793 10793 10791 10790 10790 10791 10790 10790 10788 10786 10784 10783 10783 10782 10781 10779 10778 10778 10777 10776 10774 10772 10770 10769 10768 10768 10767 10766 10765 10763 10763 10761 10760 10759 10758 10756 10753 10749 10745 10742 10739 10737 10735 10733 10731 10728 10724 10720 10716 10712 10708 10704 10700 10695 10691 10685 10680 10675 10670 10664 10658 10651 10645 10638 10630 10623 10615 10608 10600 10592 10583 10575 10567 10558 10548 10539 10529 10521 10513 10505 10498 10490 10483 10475
10792 10791 10787 10785 10787 10787 10786 10785 10784 10783 10781 10779 10778 10777 10775 10774 10773 10772 10771 10770 10769 10767 10765 10764 10763 10762 10761 10761 10760 10758 10757 10756 10755 10754 10752 10750 10748 10746 10743 10739 10735 10732 10729 10727 10725 10722 10719 10715 10711 10707 10703 10699 10695 10691 10686 10681 10676 10671 10665 10660 10654 10648 10641 10634 10626 10619 10612 10606 10598 10591 10583 10574 10566 10556 10547 10537 10528 10519 10511 10504 10496 10488 10480 10472 10464
10786 10786 10785 10785 10785 10783 10781 10780 10779 10777 10775 10774 10773 10771 10769 10767 10765 10764 10763 10763 10763 10761 10760 10758 10757 10756 10755 10755 10754 10752 10751 10750 10749 10748 10747 10744 10741 10739 10736 10732 10727 10724 10720 10718 10715 10712 10709 10706 10702 10698 10694 10690 10686 10682 10677 10672 10667 10661 10656 10650 10644 10637 10630 10624 10617 10610 10603 10597 10589 10581 10573 10564 10555 10545 10535 10526 10517 10509 10502 10494 10486 10478 10470 10461 10452
10776 10779 10780 10781 10780 10778 10776 10774 10773 10771 10771 10770 10768 10765 10763 10761 10759 10757 10755 10755 10755 10754 10753 10752 10751 10750 10749 10749 10748 10747 10746 10744 10742 10741 10740 10738 10735 10731 10728 10724 10719 10716 10712 10709 10705 10702 10699 10696 10693 10689 10685 10681 10677 10672 10667 10662 10657 10652 10646 10640 10633 10627 10621 10614 10607 10601 10594 10586 10578 10570 10561 10551 10542 10532 10523 10515 10507 10499 10491 10483 10475 10467 10459 10450 10441
10768 10771 10773 10773 10773 10772 10771 10769 10767 10766 10766 10765 10762 10760 10758 10755 10752 10750 10749 10748 10747 10746 10745 10745 10744 10744 10743 10743 10742 10741 10740 10738 10735 10733 10731 10729 10727 10724 10720 10716 10712 10708 10704 10700 10697 10693 10689 10686 10683 10679 10675 10671 10667 10662 10658 10652 10647 10641 10636 10630 10623 10617 10611 10604 10597 10590 10583 10574 10565 10556 10547 10537 10528 10520 10512 10504 10497 10489 10481 10473 10464 10456 10447 10438 10429
10760 10764 10766 10767 10766 10766 10765 10764 10762 10761 10760 10759 10756 10754 10753 10750 10747 10745 10743 10741 10740 10739 10738 10737 10737 10736 10736 10735 10734 10732 10732 10730 10728 10725 10723 10720 10718 10715 10712 10708 10704 10700 10696 10693 10689 10685 10681 10678 10674 10670 10666 10662 10657 10653 10648 10642 10637 10632 10626 10620 10614 10607 10600 10594 10586 10579 10571 10563 10553 10544 10534 10525 10516 10508 10501 10494 10486 10478 10470 10462 10453 10444 10436 10427 10418
10754 10757 10760 10761 10761 10759 10758 10757 10754 10752 10752 10751 10750 10749 10748 10745 10742 10740 10738 10736 10734 10733 10732 10731 10730 10728 10728 10727 10726 10724 10723 10722 10721 10719 10716 10713 10711 10708 10704 10700 10696 10692 10689 10685 10681 10677 10674 10670 10666 10662 10658 10653 10648 10643 10638 10633 10628 10622 10616 10610 10603 10596 10589 10582 10575 10567 10559 10550 10541 10531 10522 10513 10505 10498 10491 10484 10477 10469 10460 10451 10443 10434 10426 10417 10408